Theta_e
342 341 340 338 337 338 339 340 340 339 337 338 337 335 337 338 338 337 336 337 338 337 336 337 338 338 338 338 337 336 337 337 337 337 337 337 337 336 337 337 337 336
342 341 340 337 337 338 338 338 338 337 337 338 336 335 337 339 338 337 337 337 336 336 336 336 336 337 337 337 337 336 336 335 335 336 336 336 336 337 337 337 337 336
343 342 340 337 337 336 336 337 337 337 339 336 334 334 337 337 337 336 336 336 336 335 336 336 336 336 336 336 337 336 336 335 335 335 336 336 336 337 337 337 337 337
344 341 340 338 336 335 337 338 338 338 337 334 333 335 337 337 336 335 336 336 334 335 335 334 335 336 336 337 336 336 336 336 336 336 336 337 337 337 337 337 336 337
344 343 341 338 337 336 337 339 338 337 336 333 333 337 337 336 335 335 335 334 333 334 334 333 334 335 336 336 336 336 336 336 336 336 336 336 336 336 336 336 335 335
345 343 341 338 337 337 337 337 336 336 336 333 333 336 337 336 335 334 334 333 333 334 334 332 332 333 334 335 336 337 337 336 336 336 335 335 335 335 336 336 336 334
345 343 341 339 337 337 337 336 336 336 333 332 334 336 336 335 335 334 334 334 334 334 333 332 332 332 332 334 335 337 337 336 336 336 336 335 336 336 335 335 335 334
345 344 342 340 339 339 338 337 336 333 330 331 334 334 334 335 335 335 334 335 335 334 334 333 333 332 332 334 335 336 336 336 337 336 336 336 336 336 335 335 335 334
344 344 342 341 340 339 338 336 333 330 330 332 333 333 334 334 335 335 335 335 335 335 335 334 333 333 333 333 335 335 335 336 336 336 335 335 335 335 334 334 334 333
344 344 342 341 341 339 338 335 332 331 331 333 333 334 335 335 335 335 335 334 334 334 334 334 334 334 332 332 333 333 333 333 335 335 335 335 333 332 331 332 333 333
344 343 342 341 341 340 338 335 333 333 334 334 335 335 334 332 332 332 332 331 331 332 332 333 333 334 333 332 333 333 332 332 333 334 335 334 331 328 327 329 331 332
344 343 343 342 341 341 339 336 335 335 336 337 335 332 331 331 331 331 330 330 330 331 331 331 332 332 332 331 332 333 332 332 333 334 334 333 328 325 326 327 329 331
344 343 342 342 341 341 338 335 335 336 337 337 333 331 332 332 332 331 331 330 330 330 330 330 330 330 330 330 331 332 332 332 333 333 334 331 326 325 326 326 328 330
344 342 342 342 341 339 336 333 334 336 336 335 333 332 333 333 332 331 331 331 330 330 330 329 329 330 330 330 330 332 332 333 333 333 333 330 327 326 326 326 328 329
343 342 342 340 339 338 335 332 334 336 337 335 333 333 333 332 331 331 331 332 331 330 330 330 330 330 330 330 331 332 332 333 333 333 332 330 328 327 326 326 327 327
343 341 340 339 339 338 335 333 335 337 337 336 335 333 333 332 331 332 334 333 332 330 330 330 330 330 329 330 331 331 331 332 332 332 331 330 329 328 326 326 325 326
342 341 339 338 339 338 336 335 336 337 337 335 335 333 332 332 332 334 334 332 332 331 330 331 330 330 330 330 331 331 330 330 330 331 331 330 329 328 327 325 324 325
342 341 339 338 339 339 337 336 336 337 336 335 335 333 332 333 334 334 334 333 331 330 331 330 330 330 329 328 329 330 330 330 330 331 331 330 329 328 327 326 326 326
343 342 341 340 340 339 338 337 336 336 336 336 335 333 333 334 335 335 334 333 332 331 331 330 330 330 329 328 329 329 329 329 329 329 330 330 329 328 327 327 327 327
343 343 342 342 341 340 339 338 337 337 336 335 335 334 334 335 334 335 335 334 333 332 330 330 330 330 329 328 329 329 328 328 327 327 329 329 329 328 327 327 327 329
339 341 343 343 342 340 339 337 336 336 335 335 334 334 334 335 335 335 335 333 333 332 330 331 330 330 329 329 330 329 328 327 326 326 327 327 328 327 326 326 328 331
335 338 341 342 340 338 337 336 335 335 335 335 334 333 334 335 335 336 336 335 333 331 331 330 330 329 329 330 330 328 327 326 326 325 326 327 327 326 325 325 327 329
335 336 338 338 336 336 335 335 334 335 335 335 335 335 335 336 336 336 336 336 334 332 331 330 330 330 330 330 329 328 327 327 327 326 326 326 326 325 323 323 324 326
336 336 337 336 336 336 335 335 336 336 336 336 336 336 336 336 337 337 336 336 334 333 332 331 330 331 330 329 329 328 328 328 327 327 326 326 327 325 322 320 320 323
338 338 338 337 337 337 336 337 338 337 336 336 336 337 336 335 337 337 336 334 332 331 332 331 330 330 330 329 328 328 329 328 326 326 326 327 327 325 322 320 320 320
340 339 339 338 338 338 338 338 338 337 336 336 336 337 337 337 337 337 336 334 332 330 330 331 331 330 329 329 329 329 329 327 325 326 327 328 327 323 321 321 320 320
Wind_Speed
20 19 18 16 14 14 14 14 14 12 10 10 9 7 8 8 6 4 4 4 3 3 2 2 3 4 4 4 4 3 4 5 4 3 3 3 3 3 3 3 3 3
21 19 17 15 14 14 13 13 12 10 11 10 8 7 8 8 7 5 4 4 4 3 2 2 3 4 5 5 5 4 3 4 5 4 3 4 4 5 5 5 5 4
21 20 17 15 14 13 13 12 11 11 11 9 8 8 8 8 7 6 5 5 4 4 4 3 3 4 5 6 6 6 5 5 7 6 5 5 5 6 6 6 5 5
23 20 17 16 13 12 13 13 12 12 10 9 9 9 9 8 7 7 7 7 6 5 5 5 4 4 5 5 6 6 7 8 8 7 6 7 7 7 7 7 6 6
24 21 18 16 14 13 14 13 13 12 10 10 10 9 10 9 9 9 10 9 7 7 6 6 6 6 6 6 7 7 8 9 9 8 7 7 8 8 8 8 8 8
24 21 19 17 15 14 14 13 12 12 12 11 11 11 11 11 12 12 12 10 9 8 8 7 6 7 8 9 9 9 9 10 9 8 8 8 9 9 9 10 11 11
25 22 20 19 17 15 14 13 12 12 13 12 13 12 13 14 14 14 13 12 10 11 11 9 8 7 7 8 10 10 9 10 10 9 10 10 11 12 12 12 13 13
26 23 21 20 18 16 14 13 12 11 12 13 13 13 14 15 15 15 15 14 13 13 14 13 11 9 8 9 10 11 10 10 11 11 11 12 13 14 14 13 14 14
26 23 22 21 19 17 15 13 11 10 11 12 13 13 14 16 17 17 17 17 17 17 17 16 15 12 10 10 10 10 9 10 11 12 13 13 14 15 15 14 14 14
26 24 23 23 21 19 16 13 11 11 12 13 12 13 15 16 16 16 15 15 16 16 17 18 17 15 12 11 11 9 8 9 11 11 12 12 13 14 14 13 13 14
27 26 26 24 23 20 17 14 12 13 13 13 13 14 14 12 12 12 11 10 10 11 12 13 13 14 13 12 12 11 10 10 10 10 10 11 12 12 12 11 12 13
29 28 27 25 24 21 17 15 15 16 16 15 14 13 13 12 11 10 10 9 8 8 8 8 9 11 13 13 13 13 12 12 12 11 11 11 11 11 10 10 11 12
31 29 27 26 24 21 17 16 17 18 17 16 15 15 14 13 11 10 10 9 8 8 7 7 8 9 11 12 13 13 13 13 13 12 12 12 11 11 10 11 11 12
32 29 27 26 24 21 18 17 18 19 18 17 16 16 15 13 12 11 10 9 9 9 9 10 9 9 10 11 12 13 14 13 13 13 14 14 12 12 12 12 12 12
32 29 27 25 24 22 19 20 21 20 20 19 18 18 17 16 14 11 10 11 11 11 11 11 10 10 10 11 12 12 13 13 13 14 15 15 14 13 13 13 13 12
33 30 27 26 25 23 21 21 22 21 21 21 21 20 19 17 14 12 12 13 14 13 13 12 11 11 10 11 12 13 13 13 14 15 16 15 15 14 14 14 13 11
34 31 28 27 26 24 22 22 23 22 22 22 22 21 20 17 15 14 15 15 15 15 15 14 12 11 11 12 14 15 15 15 16 17 16 16 16 15 15 15 13 11
35 33 30 28 26 25 24 24 24 24 23 24 24 22 21 18 17 17 16 16 16 16 16 16 15 13 12 13 15 16 16 17 17 17 17 17 17 16 16 15 15 13
36 34 31 29 27 26 26 26 26 26 26 27 26 24 21 20 20 19 18 18 18 18 18 18 17 14 13 14 15 15 15 15 15 16 17 18 18 17 16 16 15 14
33 33 32 31 29 28 28 28 27 28 29 28 26 23 22 22 22 21 19 18 19 19 19 19 17 15 15 16 16 14 13 12 13 14 16 18 18 16 16 15 15 15
29 30 32 32 30 29 29 29 28 29 29 28 26 24 24 24 24 23 21 19 19 19 20 19 18 16 16 16 15 14 12 11 11 12 15 17 17 15 15 15 15 15
25 29 32 32 31 29 28 28 29 30 30 28 26 25 25 25 25 23 21 20 19 19 20 20 19 18 17 16 15 14 13 11 10 11 14 15 15 13 13 14 14 14
25 29 32 31 29 28 28 30 31 29 27 25 24 24 24 24 25 25 23 23 22 21 21 21 22 21 19 17 16 14 13 11 10 12 13 14 13 12 12 12 12 13
27 28 30 29 27 28 30 30 27 24 23 23 23 24 24 25 25 24 24 24 24 23 23 23 23 22 20 18 16 14 13 11 10 12 13 14 13 12 12 12 12 13
27 26 28 29 29 30 29 25 23 24 26 26 25 25 26 26 24 23 22 23 24 26 27 27 24 21 20 19 16 14 12 11 11 12 13 14 13 13 13 13 14 14
26 26 28 29 29 29 27 24 22 23 25 24 24 23 24 24 24 24 25 26 25 25 28 29 26 22 20 18 16 14 12 11 11 12 13 14 13 14 15 15 16 14
Wind_Direction
193 194 195 196 195 195 197 197 197 198 196 193 195 204 207 212 221 224 211 212 239 266 269 257 264 269 276 287 293 307 324 318 312 306 296 302 311 311 320 323 317 320
198 196 195 195 191 195 199 198 200 200 191 191 198 202 210 215 214 218 224 232 252 261 267 287 282 274 277 276 273 280 298 310 312 303 296 303 303 299 306 315 308 292
199 198 197 196 193 196 197 195 198 196 194 203 208 208 217 217 216 230 237 237 253 262 268 286 288 280 280 273 267 266 271 293 304 297 287 289 294 297 300 307 304 281
199 200 202 199 196 194 191 191 194 198 208 219 210 207 215 219 225 232 231 238 249 252 262 273 270 269 274 270 264 265 270 283 294 293 283 279 283 288 292 299 300 287
201 204 205 201 196 190 189 194 199 206 222 228 215 212 217 225 238 238 236 242 243 242 256 264 257 254 259 265 266 268 270 275 285 286 281 282 281 281 286 288 283 280
202 205 203 201 198 195 197 203 207 216 231 231 221 220 226 234 244 245 244 243 237 238 250 257 256 253 253 257 261 264 264 267 273 273 274 283 283 277 278 276 273 275
203 205 203 202 202 202 207 212 217 225 230 228 224 227 233 238 244 247 250 249 242 243 249 252 253 251 252 256 257 258 257 256 259 259 264 275 278 275 273 271 272 276
203 203 204 205 205 207 213 217 222 223 221 224 229 231 233 237 244 249 253 255 252 251 253 254 252 250 252 255 256 258 257 255 253 252 257 265 269 271 272 270 269 271
201 202 204 206 207 209 212 216 220 216 215 226 233 237 243 247 251 254 258 262 260 258 259 258 254 250 249 252 254 257 260 258 254 254 259 264 268 271 276 276 271 266
200 203 205 207 210 212 211 208 210 210 215 229 241 252 258 257 256 257 259 261 261 259 261 262 257 249 245 249 251 254 264 266 260 259 263 266 270 275 279 280 275 268
201 204 206 208 213 216 212 205 208 216 224 237 248 254 252 245 241 239 239 245 250 253 258 259 253 246 244 249 251 254 267 273 268 265 265 266 270 276 278 277 275 272
202 205 207 210 216 217 213 210 216 224 233 243 246 237 225 216 215 216 220 229 234 236 242 244 242 243 247 253 254 256 263 271 272 270 266 265 268 275 279 278 276 273
203 206 209 212 217 217 214 216 222 229 236 239 232 221 213 213 219 223 224 227 228 231 247 261 261 256 257 263 263 260 261 266 272 273 266 263 267 278 286 285 281 277
204 209 211 214 216 215 216 219 222 227 232 230 225 223 224 232 242 240 229 230 239 249 267 275 270 261 262 269 269 263 259 262 267 267 264 263 268 279 289 290 287 283
206 208 210 215 215 213 216 219 220 224 227 229 233 237 240 249 255 245 233 240 250 258 267 267 263 266 265 264 264 261 259 261 262 260 259 262 268 277 287 292 291 287
206 207 210 215 215 213 217 221 223 225 228 232 237 240 244 253 254 242 240 249 255 260 263 259 262 272 266 258 261 263 264 264 262 261 259 260 265 273 284 292 293 288
205 208 212 215 214 215 220 223 225 227 229 233 235 239 247 251 245 241 247 251 254 258 259 257 263 270 266 263 262 262 265 267 265 264 262 259 261 267 278 289 292 287
205 209 214 216 214 217 221 223 225 227 229 232 236 241 246 244 239 243 249 251 252 256 257 256 261 266 268 270 267 263 264 265 265 265 261 258 259 262 272 284 288 287
207 210 214 216 216 219 222 223 225 227 230 234 238 242 242 241 242 246 250 251 252 255 257 258 260 263 267 272 271 264 256 254 258 260 257 256 258 262 272 281 284 286
209 212 216 218 218 220 222 224 226 229 233 236 239 239 239 241 243 245 250 252 252 255 260 260 259 262 269 273 268 255 246 250 258 258 257 257 259 264 274 280 283 285
212 214 217 218 218 220 222 224 227 231 234 237 238 238 240 243 245 246 249 251 251 254 256 258 261 266 272 271 258 247 248 256 262 263 263 261 260 266 274 278 282 285
216 214 214 214 215 217 219 223 228 232 236 238 238 240 244 247 247 248 251 253 253 252 252 256 262 267 269 261 245 242 251 256 261 270 269 263 261 266 273 278 283 286
221 213 211 213 213 216 221 227 230 234 237 240 242 246 249 251 251 253 256 256 255 252 252 258 263 265 263 251 239 240 246 251 264 272 266 260 261 267 276 282 284 285
224 216 214 214 216 222 228 230 230 232 237 242 245 248 250 253 256 259 260 262 263 261 259 260 263 264 257 242 234 238 242 251 267 269 259 255 260 270 280 286 288 288
223 219 218 220 223 229 231 230 229 232 237 241 244 246 250 253 255 257 260 269 276 277 274 268 261 257 251 239 232 234 242 257 266 259 253 254 261 274 283 289 295 295
226 225 224 224 226 229 230 229 230 233 235 238 242 244 246 249 250 252 255 261 264 269 278 277 266 255 246 236 230 233 243 256 256 249 250 255 264 279 288 294 299 299